Zurück zum Katalog

COSMOS 1691 DEB

AktivPO
NORAD 43315·DEBRIS·🇷🇺 Russia

Gestartet Oct 9, 1985 von Plesetsk Cosmodrome

Loading…

Nächste Überflüge (nächste 24 Stunden)

TLE

AktuellSource: Space-Track

Epoche: Sep 13, 2026, 06:49 UTC

1 43315U 85094Z   26256.28470636  .00000183  00000-0  87337-3 0  9992
2 43315  82.5592  98.3937 0019798 127.9177 232.3711 12.69298148593024

Verfolge COSMOS 1691 DEB in Echtzeit mit AllMySat

Download on the App Store